TimeCDT,TemperatureF,Dew PointF,Humidity,Sea Level PressureIn,VisibilityMPH,Wind Direction,Wind SpeedMPH,Gust SpeedMPH,PrecipitationIn,Events,Conditions,WindDirDegrees,DateUTC
12:53 AM,75.0,71.1,87,29.97,10.0,Calm,Calm,-,N/A,,Clear,0,2013-07-07 05:53:00
1:53 AM,73.0,71.1,93,29.96,10.0,Calm,Calm,-,N/A,,Clear,0,2013-07-07 06:53:00
2:53 AM,73.0,70.0,90,29.97,10.0,Calm,Calm,-,N/A,,Partly Cloudy,0,2013-07-07 07:53:00
3:53 AM,72.0,70.0,93,29.98,10.0,Calm,Calm,-,N/A,,Partly Cloudy,0,2013-07-07 08:53:00
4:53 AM,73.9,71.1,91,29.99,10.0,Calm,Calm,-,N/A,,Mostly Cloudy,0,2013-07-07 09:53:00
5:45 AM,73.4,71.6,94,30.00,10.0,East,3.5,-,N/A,,Scattered Clouds,80,2013-07-07 10:45:00
5:53 AM,73.9,72.0,93,29.99,10.0,Calm,Calm,-,N/A,,Scattered Clouds,0,2013-07-07 10:53:00
6:00 AM,73.4,71.6,94,30.00,10.0,ESE,3.5,-,N/A,,Mostly Cloudy,120,2013-07-07 11:00:00
6:53 AM,75.0,73.0,94,30.00,10.0,Calm,Calm,-,N/A,,Overcast,0,2013-07-07 11:53:00
7:53 AM,75.9,73.0,91,30.03,10.0,SE,4.6,-,N/A,,Overcast,130,2013-07-07 12:53:00
8:53 AM,79.0,73.0,82,30.05,10.0,Calm,Calm,-,N/A,,Overcast,0,2013-07-07 13:53:00
9:14 AM,80.6,73.4,79,30.05,10.0,ESE,4.6,-,N/A,,Overcast,110,2013-07-07 14:14:00
9:53 AM,82.0,73.0,74,30.05,10.0,Calm,Calm,-,N/A,,Mostly Cloudy,0,2013-07-07 14:53:00
10:29 AM,84.2,73.4,70,30.05,10.0,ESE,3.5,-,N/A,,Overcast,110,2013-07-07 15:29:00
10:53 AM,84.0,73.0,69,30.04,10.0,Calm,Calm,-,N/A,,Mostly Cloudy,0,2013-07-07 15:53:00
11:01 AM,86.0,73.4,66,30.05,10.0,Variable,3.5,-,N/A,,Scattered Clouds,0,2013-07-07 16:01:00
11:08 AM,86.0,73.4,66,30.05,10.0,Calm,Calm,-,N/A,,Mostly Cloudy,0,2013-07-07 16:08:00
11:20 AM,84.2,73.4,70,30.04,10.0,Calm,Calm,-,N/A,,Mostly Cloudy,0,2013-07-07 16:20:00
11:53 AM,89.1,73.0,59,30.03,10.0,Calm,Calm,-,N/A,,Partly Cloudy,0,2013-07-07 16:53:00
12:30 PM,89.6,73.4,59,30.03,10.0,Variable,3.5,-,N/A,,Mostly Cloudy,0,2013-07-07 17:30:00
12:50 PM,87.8,73.4,62,30.03,10.0,SE,5.8,-,N/A,,Overcast,140,2013-07-07 17:50:00
12:53 PM,87.1,73.0,63,30.03,10.0,Calm,Calm,-,N/A,,Overcast,0,2013-07-07 17:53:00
1:53 PM,90.0,73.9,59,30.01,10.0,SE,8.1,-,N/A,,Mostly Cloudy,130,2013-07-07 18:53:00
2:53 PM,86.0,75.9,72,30.00,10.0,South,4.6,-,0.02,,Overcast,190,2013-07-07 19:53:00
3:53 PM,91.0,72.0,53,30.00,10.0,South,8.1,-,N/A,,Scattered Clouds,190,2013-07-07 20:53:00
4:53 PM,82.9,73.0,72,30.01,10.0,South,10.4,-,N/A,Thunderstorm,Thunderstorm,190,2013-07-07 21:53:00
5:12 PM,82.4,73.4,74,30.02,10.0,Variable,4.6,-,N/A,,Partly Cloudy,0,2013-07-07 22:12:00
5:53 PM,82.9,73.9,74,30.01,10.0,SW,9.2,-,N/A,,Partly Cloudy,230,2013-07-07 22:53:00
6:53 PM,82.0,73.9,76,30.02,10.0,SSW,4.6,-,N/A,,Scattered Clouds,200,2013-07-07 23:53:00
7:53 PM,81.0,73.9,79,30.04,10.0,SW,3.5,-,N/A,,Partly Cloudy,230,2013-07-08 00:53:00
8:53 PM,78.1,73.9,87,30.04,10.0,Calm,Calm,-,N/A,,Clear,0,2013-07-08 01:53:00
9:53 PM,77.0,73.0,88,30.06,10.0,Calm,Calm,-,N/A,,Clear,0,2013-07-08 02:53:00
10:53 PM,75.0,73.0,94,30.06,10.0,Calm,Calm,-,N/A,,Clear,0,2013-07-08 03:53:00
11:53 PM,75.0,72.0,90,30.06,10.0,Calm,Calm,-,N/A,,Clear,0,2013-07-08 04:53:00